{"data":{"norad_id":51965,"epoch":"2026-09-19T11:54:19.386144Z","epoch_age_seconds":142882,"freshness":"FRESH","line1":"1 51965U 22025K   26262.49605771  .00000176  00000+0  17432-4 0  9998","line2":"2 51965  53.1595 215.2909 0001434  87.1704 272.9461 15.31703800250526","mean_motion":15.317038,"eccentricity":0.0001434,"inclination_deg":53.1595,"raan_deg":215.2909,"arg_perigee_deg":87.1704,"mean_anomaly_deg":272.9461,"bstar":1.7432e-5,"rev_number":25052,"period_min":94.012954724014,"perigee_km":469.74654031006,"apogee_km":471.71079498354,"semimajor_km":6848.8656676468,"source":"CELESTRAK","updated_at":"2026-09-20T09:00:39.976680Z"}}